TimeCST,TemperatureF,Dew PointF,Humidity,Sea Level PressureIn,VisibilityMPH,Wind Direction,Wind SpeedMPH,Gust SpeedMPH,PrecipitationIn,Events,Conditions,WindDirDegrees,DateUTC
12:54 AM,34.0,27.0,75,30.04,10.0,SSW,9.2,-,N/A,,Clear,210,2011-11-07 06:54:00
1:54 AM,35.1,26.1,70,30.04,10.0,SW,6.9,-,N/A,,Clear,230,2011-11-07 07:54:00
2:54 AM,37.0,25.0,62,30.05,10.0,SW,8.1,-,N/A,,Clear,220,2011-11-07 08:54:00
3:54 AM,34.0,25.0,70,30.06,10.0,SSW,10.4,-,N/A,,Clear,210,2011-11-07 09:54:00
4:54 AM,33.1,24.1,70,30.08,10.0,SW,9.2,-,N/A,,Clear,220,2011-11-07 10:54:00
6:54 AM,35.1,24.1,64,30.12,10.0,SW,10.4,-,N/A,,Clear,220,2011-11-07 12:54:00
7:54 AM,37.9,25.0,60,30.14,10.0,SW,8.1,-,N/A,,Clear,230,2011-11-07 13:54:00
8:54 AM,42.1,25.0,51,30.16,10.0,WSW,13.8,17.3,N/A,,Clear,250,2011-11-07 14:54:00
9:54 AM,45.0,23.0,42,30.17,10.0,West,12.7,-,N/A,,Clear,260,2011-11-07 15:54:00
10:54 AM,48.0,21.9,36,30.18,10.0,West,13.8,24.2,N/A,,Clear,260,2011-11-07 16:54:00
11:54 AM,51.1,21.9,32,30.17,10.0,WSW,15.0,19.6,N/A,,Clear,250,2011-11-07 17:54:00
12:54 PM,52.0,21.0,30,30.17,10.0,West,16.1,23.0,N/A,,Clear,260,2011-11-07 18:54:00
1:54 PM,53.1,19.9,27,30.16,10.0,West,11.5,19.6,N/A,,Clear,260,2011-11-07 19:54:00
3:54 PM,50.0,18.0,28,30.18,10.0,West,8.1,-,N/A,,Clear,280,2011-11-07 21:54:00
4:54 PM,44.1,19.9,38,30.19,10.0,West,4.6,-,N/A,,Clear,280,2011-11-07 22:54:00
5:54 PM,42.1,19.0,40,30.21,10.0,West,5.8,-,N/A,,Clear,270,2011-11-07 23:54:00
6:54 PM,39.9,19.0,43,30.22,10.0,West,4.6,-,N/A,,Clear,280,2011-11-08 00:54:00
7:54 PM,41.0,19.0,41,30.24,10.0,West,4.6,-,N/A,,Clear,260,2011-11-08 01:54:00
8:54 PM,39.0,23.0,53,30.25,10.0,Calm,Calm,-,N/A,,Clear,0,2011-11-08 02:54:00
9:54 PM,37.9,24.1,57,30.23,10.0,NW,4.6,-,N/A,,Clear,320,2011-11-08 03:54:00
10:54 PM,37.9,24.1,57,30.22,10.0,Calm,Calm,-,N/A,,Clear,0,2011-11-08 04:54:00
11:54 PM,39.0,24.1,55,30.22,10.0,Calm,Calm,-,N/A,,Partly Cloudy,0,2011-11-08 05:54:00